Location: ????????
(55.3939°N, 37.4780°E)
Time: 10:10:08
(UTC+00:00)

RESURS DK-1 - Pass Details

Date: 14 April 2026
Orbit: 524 x 530 km, 69.9° (Epoch: 10 May)

Event Time Altitude Azimuth Distance (km) Brightness Sun altitude
Exits shadow 18:42:37 30° 106° (ESE) 974 3.1 -16.2°
Drops below altitude 10° 18:45:51 10° 52° (NE) 1,778 4.9 -16.5°
Sets 18:48:12 0° 42° (NE) 2,674 5.9 -16.7°
